Torna al catalogo

BREEZE-M DEB

LostHEO
NORAD 38605·DEBRIS·🇷🇺 Russia

Lanciato Mar 14, 2008 da Baikonur Cosmodrome

Loading…

Prossimi Passaggi (prossime 24 ore)

TLE

ObsoletoSource: Space-Track

Epoca: Mar 22, 2016, 19:01 UTC

1 38605U 08011BC  16082.79245447 -.00006854  00000-0 -22518+0 0  9993
2 38605  49.1320 223.5179 6384388 171.1367 356.3974  3.07032609 56860

Traccia BREEZE-M DEB in tempo reale con AllMySat

Download on the App Store